Strathmore
DateTemperatureDew Point
09/02 - 08:15 PM65.5°57.3°
09/02 - 08:00 PM66.6°57.3°
09/02 - 07:45 PM67.4°56.3°
09/02 - 07:30 PM68.8°56.8°
09/02 - 07:15 PM71.0°57.8°
09/02 - 07:00 PM73.7°56.5°
09/02 - 06:45 PM76.1°54.6°
09/02 - 06:30 PM77.7°53.3°
09/02 - 06:15 PM79.0°52.7°
09/02 - 06:00 PM79.9°53.1°
09/02 - 05:45 PM80.6°53.3°
09/02 - 05:30 PM81.1°53.6°
09/02 - 05:15 PM81.7°54.3°
09/02 - 05:00 PM81.9°53.4°
09/02 - 04:45 PM82.3°53.6°
09/02 - 04:30 PM82.6°53.1°
09/02 - 04:15 PM83.5°53.2°
09/02 - 04:00 PM84.3°55.0°
09/02 - 03:45 PM84.1°54.9°
09/02 - 03:30 PM83.8°54.8°
09/02 - 03:15 PM83.4°54.7°
09/02 - 03:00 PM83.4°54.6°
09/02 - 02:45 PM83.7°55.4°
09/02 - 02:30 PM83.3°55.3°
09/02 - 02:15 PM82.6°56.0°
09/02 - 02:00 PM82.1°55.4°
09/02 - 01:45 PM81.5°55.7°
09/02 - 01:30 PM81.4°55.3°
09/02 - 01:15 PM82.6°55.7°
09/02 - 01:00 PM81.4°56.0°
09/02 - 12:45 PM79.9°55.2°
09/02 - 12:30 PM79.1°54.9°
09/02 - 12:15 PM78.6°54.5°
09/02 - 12:00 PM78.1°55.2°
09/02 - 11:45 AM77.4°54.6°
09/02 - 11:30 AM76.1°54.2°
09/02 - 11:15 AM75.3°54.2°
09/02 - 11:00 AM74.8°54.6°
09/02 - 10:45 AM74.1°54.4°
09/02 - 10:30 AM74.0°54.2°
09/02 - 10:15 AM72.5°53.9°
09/02 - 10:00 AM72.4°54.0°
09/02 - 09:45 AM72.0°53.8°
09/02 - 09:30 AM70.2°53.5°
09/02 - 09:15 AM69.0°53.0°
09/02 - 09:00 AM67.9°52.9°
09/02 - 08:45 AM66.5°52.8°
09/02 - 08:30 AM65.1°52.7°
09/02 - 08:15 AM63.9°52.5°
09/02 - 08:00 AM62.6°52.7°
09/02 - 07:45 AM61.6°52.6°
09/02 - 07:30 AM59.9°52.5°
09/02 - 07:15 AM58.0°52.4°
09/02 - 07:00 AM55.9°51.7°
09/02 - 06:45 AM54.1°51.2°
09/02 - 06:30 AM53.1°51.3°
09/02 - 06:15 AM52.5°51.3°
09/02 - 06:00 AM52.4°51.8°
09/02 - 05:45 AM52.3°51.9°
09/02 - 05:30 AM52.3°51.8°
09/02 - 05:15 AM52.2°51.5°
09/02 - 05:00 AM52.5°51.5°
09/02 - 04:45 AM52.8°51.5°
09/02 - 04:30 AM53.1°51.4°
09/02 - 04:15 AM53.6°51.5°
09/02 - 04:00 AM53.8°51.7°
09/02 - 03:45 AM54.5°52.1°
09/02 - 03:30 AM53.9°52.8°
09/02 - 03:15 AM53.4°53.1°
09/02 - 03:00 AM53.4°53.0°
09/02 - 02:45 AM53.5°52.8°
09/02 - 02:30 AM54.1°53.4°
09/02 - 02:15 AM54.4°53.4°
09/02 - 02:00 AM54.8°53.3°
09/02 - 01:45 AM55.2°53.1°
09/02 - 01:30 AM55.9°53.2°
09/02 - 01:15 AM56.7°52.9°
09/02 - 01:00 AM57.8°52.7°
09/02 - 12:45 AM59.4°52.1°
09/02 - 12:30 AM60.6°51.4°
09/02 - 12:15 AM61.3°51.5°
09/02 - 12:00 AM60.9°51.4°
09/01 - 11:45 PM60.4°51.1°
09/01 - 11:30 PM59.7°52.9°
09/01 - 11:15 PM61.2°53.3°
09/01 - 11:00 PM60.3°53.5°
09/01 - 10:45 PM59.2°55.8°
09/01 - 10:30 PM59.6°56.0°
09/01 - 10:15 PM60.1°55.5°
09/01 - 10:00 PM61.1°55.3°
09/01 - 09:45 PM61.9°54.5°
09/01 - 09:30 PM62.3°53.0°
09/01 - 09:15 PM63.0°54.5°
09/01 - 09:00 PM64.1°53.4°
09/01 - 08:45 PM65.4°52.0°
09/01 - 08:30 PM65.7°50.8°
09/01 - 08:15 PM64.8°54.5°
09/01 - 08:00 PM66.3°56.2°
09/01 - 07:45 PM68.0°55.2°
09/01 - 07:30 PM68.8°53.1°
09/01 - 07:15 PM70.0°55.1°
09/01 - 07:00 PM72.3°53.8°
09/01 - 06:45 PM74.8°52.3°
09/01 - 06:30 PM76.9°51.7°
09/01 - 06:15 PM78.6°50.5°
09/01 - 06:00 PM79.6°48.5°
09/01 - 05:45 PM80.7°48.6°
09/01 - 05:30 PM81.7°49.0°
09/01 - 05:15 PM82.4°48.2°
09/01 - 05:00 PM82.9°48.4°
09/01 - 04:45 PM83.4°49.9°
09/01 - 04:30 PM83.7°49.9°
09/01 - 04:15 PM84.6°51.1°
09/01 - 04:00 PM85.5°50.4°
09/01 - 03:45 PM84.8°50.8°
09/01 - 03:30 PM84.2°50.9°
09/01 - 03:15 PM84.4°52.2°
09/01 - 03:00 PM84.8°52.3°
09/01 - 02:45 PM84.5°54.4°
09/01 - 02:30 PM83.1°55.7°
09/01 - 02:15 PM82.4°55.2°
09/01 - 02:00 PM83.6°56.6°
09/01 - 01:45 PM83.0°57.2°
09/01 - 01:30 PM81.0°56.9°
09/01 - 01:15 PM80.3°57.4°
09/01 - 01:00 PM81.2°57.0°
09/01 - 12:45 PM81.3°56.8°
09/01 - 12:30 PM80.8°57.5°
09/01 - 12:15 PM79.5°58.0°
09/01 - 12:00 PM77.4°57.6°
09/01 - 11:45 AM77.8°58.3°
09/01 - 11:30 AM75.9°58.1°
09/01 - 11:15 AM75.2°58.2°
09/01 - 11:00 AM75.1°58.3°
09/01 - 10:45 AM74.7°58.0°
09/01 - 10:30 AM73.9°57.9°
09/01 - 10:15 AM72.8°57.8°
09/01 - 10:00 AM72.4°57.6°
09/01 - 09:45 AM70.3°57.1°
09/01 - 09:30 AM69.7°56.8°
09/01 - 09:15 AM68.8°56.8°
09/01 - 09:00 AM65.9°56.1°
09/01 - 08:45 AM64.6°55.9°
09/01 - 08:30 AM63.7°55.8°
09/01 - 08:15 AM62.6°55.6°
09/01 - 08:00 AM61.9°55.8°
09/01 - 07:45 AM61.0°56.3°
09/01 - 07:30 AM59.4°57.3°
09/01 - 07:15 AM57.9°57.8°
09/01 - 07:00 AM56.4°56.4°
09/01 - 06:45 AM55.5°55.5°
09/01 - 06:30 AM54.9°54.9°
09/01 - 06:15 AM55.0°55.0°
09/01 - 06:00 AM55.1°55.1°
09/01 - 05:45 AM55.3°55.3°
09/01 - 05:30 AM55.3°55.3°
09/01 - 05:15 AM55.6°55.4°
09/01 - 05:00 AM55.9°55.7°
09/01 - 04:45 AM56.0°55.6°
09/01 - 04:30 AM56.0°55.5°
09/01 - 04:15 AM56.2°55.7°
09/01 - 04:00 AM56.5°56.1°
09/01 - 03:45 AM56.7°56.0°
09/01 - 03:30 AM57.3°56.4°
09/01 - 03:15 AM57.5°56.2°
09/01 - 03:00 AM57.8°55.9°
09/01 - 02:45 AM58.1°55.4°
09/01 - 02:30 AM58.8°55.2°
09/01 - 02:15 AM59.2°54.5°
09/01 - 02:00 AM59.7°53.7°
09/01 - 01:45 AM59.7°52.8°
09/01 - 01:30 AM59.8°52.7°
09/01 - 01:15 AM59.8°51.4°
09/01 - 01:00 AM59.7°52.9°
09/01 - 12:45 AM59.9°55.2°
09/01 - 12:30 AM60.4°54.0°
09/01 - 12:15 AM60.9°52.2°
09/01 - 12:00 AM61.1°53.4°
08/31 - 11:45 PM61.7°53.3°
08/31 - 11:30 PM62.5°52.1°
08/31 - 11:15 PM63.2°50.1°
08/31 - 11:00 PM64.5°49.2°
08/31 - 10:45 PM65.6°47.9°
08/31 - 10:30 PM67.4°46.7°
08/31 - 10:15 PM67.0°44.7°
08/31 - 10:00 PM67.5°44.9°
08/31 - 09:45 PM67.9°45.0°
08/31 - 09:30 PM68.5°45.9°
08/31 - 09:15 PM68.4°46.8°
08/31 - 09:00 PM67.3°51.4°